Location: Brussels High School
(38.9495°N, 90.5887°W)
Time: 00:12:59
(UTC+00:00)

Daily predictions for brighter satellites

Satellite Brightness Start Highest point End
(mag) Time Altitude Azimuth Time Altitude Azimuth Time Altitude Azimuth
CZ-4 R/B 4.3 00:01:01 10° SSE 00:04:54 59° ENE 00:08:51 10° N
MOS 1 Rocket 2.9 00:02:25 10° SSE 00:06:39 73° ENE 00:10:55 10° N
IRS-P3 4.3 00:02:33 10° S 00:07:52 79° WSW 00:13:13 10° NNW
Cosmos 1606 4.5 00:05:50 10° SW 00:08:03 22° WNW 00:10:16 10° NNW
Cosmos 2016 Rocket 4.2 00:06:53 10° S 00:13:04 77° W 00:19:25 10° N
Cosmos 909 Rocket 4.2 00:08:21 10° NNW 00:14:38 81° WSW 00:21:18 10° SSE
CZ-2D R/B 3.2 00:14:19 10° SSE 00:18:16 75° ENE 00:22:23 10° N
SPOT 1/Viking Rocket 3.4 00:16:21 10° SSE 00:21:28 78° ENE 00:26:39 10° N
Cosmos 1782 Rocket 3.5 00:17:45 10° S 00:22:10 86° E 00:26:38 10° N
Cosmos 1943 Rocket 3.8 00:18:35 10° SE 00:20:25 16° SE 00:20:25 16° SE
ARIANE 5 R/B 4.1 00:19:11 10° SSW 00:23:44 36° W 00:28:18 10° NNW
Tiangong -1.9 00:21:01 10° WNW 00:24:09 52° N 00:24:28 49° NNE
IRAS Rocket 4.1 00:21:12 10° SSE 00:26:47 80° ENE 00:32:22 10° NNW
Cosmos 2061 Rocket 4.1 00:26:14 10° S 00:32:36 83° W 00:38:56 10° N
SKYMED 2 4.3 00:28:39 10° N 00:32:53 54° WNW 00:37:06 10° SSW
Cosmos 1140 Rocket 3.4 00:28:41 10° S 00:33:47 63° ESE 00:36:52 24° NNE
SL-4 R/B 3.6 00:31:18 10° NNW 00:33:09 18° N 00:33:09 18° N
COSMO-SKYMED 1 2.6 00:29:49 10° N 00:33:56 74° WNW 00:38:02 10° SSW
SL-19 R/B 4.0 00:28:45 10° SSE 00:34:07 78° ENE 00:39:21 10° NNW
Geosat 3.9 00:30:34 10° SSE 00:35:34 89° ENE 00:40:36 10° NNW
Cosmos 1833 Rocket 2.9 00:38:27 10° N 00:43:53 46° ENE 00:44:22 45° ENE
Cosmos 1975 Rocket 2.8 00:43:28 10° N 00:47:47 78° E 00:50:53 19° SSE
Delta 2 Rocket 3.6 00:44:50 10° WSW 00:48:35 51° S 00:48:35 51° S
Cosmos 1441 Rocket 4.2 00:45:55 10° NNW 00:49:04 40° W 00:52:13 10° SSW
ATLAS 5 CENTAUR R/B 3.8 00:48:29 10° N 00:49:26 14° N 00:49:26 14° N
Resurs 01 Rocket 3.9 00:58:12 14° N 00:58:12 14° N 00:58:49 10° N
Cosmos 1891 Rocket 4.4 00:53:47 10° S 01:00:10 84° E 01:06:39 10° N
Cosmos 2084 Rocket 3.8 01:00:54 10° SW 01:04:21 59° SW 01:04:21 59° SW
Cosmos 407 Rocket 4.2 01:10:07 10° SSW 01:13:35 43° S 01:13:35 43° S
NOSS 3-4 (A) 4.4 01:12:30 10° NW 01:19:31 59° WSW 01:27:39 10° SSE
NOSS 3-4 (C) 4.4 01:12:34 10° NW 01:19:36 60° WSW 01:27:43 10° SSE
Cosmos 1464 Rocket 4.0 01:14:44 10° S 01:28:40 - N 01:20:08 64° SSE
ATLAS CENTAUR R/B 4.0 01:26:39 10° WNW 01:27:55 12° NW 01:27:55 12° NW
Cosmos 2278 Rocket 3.6 01:22:43 10° SSW 01:25:11 27° S 01:25:11 27° S
USA 281 3.1 01:39:32 79° SW 01:39:43 80° WSW 01:46:20 10° NNW
SL-12 R/B(2) 4.3 01:33:49 10° SW 01:41:31 75° NW 01:44:53 43° NNE
Cosmos 1943 Rocket 4.2 02:00:09 10° SW 02:02:00 21° SW 02:02:00 21° SW
ACS3 Solar Sail 4.1 08:59:25 10° NNE 09:00:18 15° NNE 09:00:18 15° NNE
USA 234 4.4 09:15:07 10° E 09:20:56 36° NNE 09:20:56 36° NNE
Cosmos 2219 Rocket 4.1 09:42:01 21° NNE 09:42:01 21° NNE 09:43:46 10° NNE
NOSS 3-1 (C) 4.4 09:49:30 32° NE 09:49:30 32° NE 09:52:29 10° NE
COSMOS 2428 3.7 09:47:51 38° SE 09:49:01 43° ESE 09:54:21 10° NE
ADEOS Rocket 4.4 09:43:19 10° N 09:46:25 31° N 09:46:25 31° N
Cosmos 2322 4.1 09:56:05 58° ESE 09:56:12 58° ESE 10:01:46 10° NNE
Cosmos 921 Rocket 4.2 10:07:01 42° E 10:07:01 42° E 10:10:34 10° SE
BlueWalker 3 4.4 10:09:09 17° NE 10:09:09 17° NE 10:10:41 10° ENE
Cosmos 1727 Rocket 3.9 10:06:33 10° S 10:12:42 84° E 10:18:56 10° N
Cosmos 2278 Rocket 4.1 10:18:31 10° N 10:23:18 27° ENE 10:28:03 10° ESE
Cosmos 2237 Rocket 3.8 10:19:37 10° SSE 10:24:38 34° ESE 10:29:40 10° NE
USA 267 3.9 10:23:29 10° NE 10:29:17 35° NNW 10:29:41 35° NW
NOSS 3-1 (A) 3.4 10:29:28 27° S 10:31:42 54° ESE 10:36:46 10° NE
Meteor 1-24 Rocket 4.2 10:30:01 10° S 10:35:45 63° E 10:41:20 10° NNE
Cosmos 2173 Rocket 4.0 10:32:41 10° N 10:38:47 80° E 10:44:53 10° S
Cosmos 44 Rocket 4.1 10:39:36 22° NNW 10:42:44 53° NE 10:47:46 10° SE
Cosmos 2360 Rocket 4.4 10:46:12 11° NNW 10:46:12 11° NNW 10:46:28 10° NNW
Cosmos 1908 Rocket 4.2 10:42:40 10° N 10:47:03 57° E 10:51:23 10° SSE
Cosmos 1000 Rocket 4.4 10:41:09 10° SSW 10:47:24 69° W 10:53:44 10° N
Meteor 2-5 Rocket 4.0 10:41:52 10° S 10:47:46 74° E 10:53:37 10° NNE
ACS3 Solar Sail 3.5 10:43:08 10° NNW 10:44:27 15° NNW 10:44:27 15° NNW
Gbstr 26 Del rocket 3.8 10:47:30 41° NW 10:47:54 42° NNW 10:53:18 10° NE
Cosmos 2123 Rocket 3.9 10:47:47 10° S 10:54:02 88° W 11:00:16 10° N
Cosmos 1340 Rocket 4.4 11:00:18 19° SSW 11:00:18 19° SSW 11:01:30 10° SSW
PAYLOAD A 4.4 10:53:29 10° N 10:58:33 42° WNW 11:00:41 28° WSW
Cosmos 1943 Rocket 2.8 10:53:40 10° NNW 10:59:06 53° ENE 11:04:27 10° SE
CZ-2C R/B 3.4 10:55:10 10° N 10:58:22 29° NW 10:58:22 29° NW
Cosmos 1140 Rocket 3.3 10:55:53 12° NNW 11:00:42 88° WSW 11:05:48 10° SSE
SJ 16-02 4.3 10:59:22 10° NE 11:00:42 11° ENE 11:02:01 10° ENE
ARGOS 4.1 10:58:30 10° N 11:02:06 27° NW 11:02:06 27° NW
USA 234 3.2 10:57:02 10° SE 11:03:36 76° SW 11:08:18 21° NW
Meteor 2-21 Rocket 4.3 11:03:39 10° SSW 11:09:45 69° W 11:15:51 10° N
Cosmos 2016 Rocket 4.1 11:03:50 10° N 11:10:14 83° E 11:16:35 10° S
TIMED 4.5 11:06:13 11° NNW 11:10:23 81° ENE 11:14:38 10° SSE
Iridium 4 Rocket 3.0 11:08:13 10° N 11:12:30 82° E 11:16:37 10° S
Cosmos 1484 Rocket 4.1 11:17:45 10° NNE 11:21:05 38° E 11:24:23 10° SSE
COSMO-SKYMED 1 3.0 11:17:32 10° SSE 11:21:34 60° ENE 11:25:39 10° N
Cosmos 2219 Rocket 4.1 11:23:45 12° NW 11:23:45 12° NW 11:25:15 10° NNW
SL-16 R/B 4.4 11:18:22 10° SSE 11:23:06 28° ESE 11:27:51 10° NE
Timation 2 Rocket 4.0 11:16:41 10° NNW 11:23:19 76° WSW 11:29:35 10° SSE
IRS-1D 3.4 11:19:28 10° N 11:24:21 59° WNW 11:29:10 10° SSW
SKYMED 2 3.5 11:21:54 10° S 11:26:14 82° WSW 11:30:35 10° NNW
USA 276 1.7 11:27:18 32° NW 11:28:20 74° NNE 11:31:08 10° ESE
Cosmos 2061 Rocket 4.1 11:25:22 10° N 11:31:36 80° E 11:37:46 10° S
COSMOS 2428 3.6 11:29:57 16° WSW 11:33:22 27° WNW 11:38:10 10° N
Cosmos 2100 Rocket 4.5 11:28:16 10° NNW 11:33:43 34° W 11:39:11 10° SSW
NOSS 0 Rocket 4.3 11:32:12 10° SW 11:37:57 41° WNW 11:43:44 10° N
NOSS 3-1 (C) 4.3 11:36:52 16° WNW 11:38:40 19° NW 11:42:34 10° N
Cosmos 1703 Rocket 4.5 11:39:32 10° SW 11:43:10 26° WNW 11:46:52 10° NNW
Cosmos 1939 Rocket 4.3 11:40:58 10° NNW 11:43:14 15° WNW 11:43:14 15° WNW
Cosmos 407 Rocket 3.4 11:38:20 10° NNW 11:43:26 71° WSW 11:48:30 10° S
Helios 1A Rocket 2.8 11:42:19 10° S 11:45:34 42° W 11:48:49 10° NNW
BlueWalker 3 1.7 11:42:58 15° NW 11:45:54 69° SW 11:49:28 10° SE
IGS 5A 4.0 11:47:51 10° NNE 11:51:50 61° E 11:55:47 10° S
Cosmos 1980 4.1 11:46:59 10° SW 11:52:15 41° WNW 11:57:36 10° N
